Location: ?????????
(56.2000°N, 38.5333°E)
Time: 23:28:05
(UTC+00:00)

Daily predictions for brighter satellites

Satellite Brightness Start Highest point End
(mag) Time Altitude Azimuth Time Altitude Azimuth Time Altitude Azimuth
Aureole 3 Rocket 4.3 13:30:43 10° SSW 13:35:24 59° WNW 13:42:01 10° N
ARIANE 5 R/B 3.2 13:34:30 10° ESE 13:39:00 33° ENE 13:43:33 10° N
Cosmos 2208 Rocket 4.0 13:33:54 10° NNW 13:39:02 58° NE 13:44:09 10° SE
Cosmos 1782 4.2 13:36:46 10° SE 13:39:07 17° E 13:41:29 10° NE
ATLAS CENTAUR R/B 0.7 13:36:19 10° NW 13:39:38 90° NE 13:42:50 10° SE
H-2A R/B 3.7 13:37:40 10° N 13:41:05 32° WNW 13:44:24 10° SW
Meteor 2-1 Rocket 4.4 13:36:38 10° S 13:42:34 81° E 13:48:23 10° NNE
Cosmos 1758 Rocket 4.0 13:38:38 10° N 13:42:43 38° ENE 13:46:44 10° SE
Cosmos 1844 Rocket 4.2 13:39:18 10° NW 13:43:17 19° N 13:47:16 10° NE
Lacrosse 4 Rocket 1.6 13:39:58 10° SSW 13:43:57 53° SE 13:47:52 10° NE
NOSS 3-2 (A) 4.2 13:39:35 10° S 13:43:57 29° ESE 13:49:03 10° ENE
SL-16 R/B 3.0 13:38:44 10° NNE 13:44:40 42° E 13:50:31 10° SSE
CZ-2D R/B 4.1 13:46:22 10° ESE 13:48:44 20° ENE 13:51:07 10° NNE
Cosmos 2151 3.7 13:46:11 10° N 13:49:50 29° ENE 13:53:30 10° SE
Cosmos 2098 Rocket 4.3 13:46:33 10° SE 13:49:59 24° E 13:53:52 10° NNE
Cosmos 968 Rocket 4.1 13:44:58 10° SW 13:50:07 56° NW 13:55:19 10° NNE
Cosmos 1315 Rocket 3.1 13:46:50 10° S 13:50:30 45° E 13:54:11 10° NNE
Cosmos 2263 Rocket 3.0 13:46:05 10° NNW 13:51:08 32° NNE 13:56:10 10° E
Okean 1 Rocket 3.5 13:47:46 10° SSW 13:52:03 63° WNW 13:56:21 10° N
Cosmos 1733 2.5 13:50:49 10° NNE 13:52:08 20° ENE 13:53:26 10° SE
Cosmos 44 Rocket 4.4 13:48:07 10° WNW 13:52:32 30° N 13:56:58 10° ENE
Iridium 51 4.2 13:51:30 10° SSE 13:54:28 38° E 13:57:30 10° NNE
Cosmos 292 Rocket 3.8 13:50:42 10° SSW 13:55:31 84° ESE 14:00:20 10° NNE
Sich 1 Rocket 4.2 13:52:34 10° SSW 13:57:02 59° WNW 14:01:30 10° N
Cosmos 1743 3.0 13:54:15 10° N 13:57:13 31° ENE 14:00:11 10° SE
CBERS-1 4.0 13:53:21 10° SSE 13:58:28 77° ENE 14:03:36 10° NNW
CORIOLIS 4.2 13:54:24 10° SE 13:59:36 56° ENE 14:04:50 10° N
Okean 2 Rocket 4.1 13:57:54 10° SW 14:02:06 45° WNW 14:06:21 10° N
Cosmos 2227 Rocket 2.5 13:58:32 10° NNW 14:04:00 47° NE 14:09:27 10° ESE
NOSS 2-2 (D) 4.4 14:03:38 10° S 14:06:03 19° SE 14:07:49 13° E
Cosmos 1626 Rocket 3.5 14:01:51 10° N 14:06:13 68° ENE 14:10:30 10° SSE
MOS 1 Rocket 4.0 14:03:55 10° SE 14:08:29 38° ENE 14:13:16 10° N
Cosmos 724 4.4 14:03:58 10° NW 14:10:06 86° SW 14:16:04 10° SE
Cosmos 2084 3.4 14:06:18 10° SW 14:10:30 79° SE 14:13:57 15° NE
IGS 5A 3.3 14:06:36 10° SSE 14:10:33 80° ENE 14:14:33 10° NNW
Cosmos 2369 Rocket 2.8 14:05:35 10° WSW 14:11:06 53° NW 14:16:42 10° NNE
Cosmos 1943 Rocket 3.8 14:07:41 10° WNW 14:11:50 21° NNW 14:16:01 10° NNE
Cosmos 1900 4.3 14:07:12 10° NW 14:12:19 73° NE 14:17:19 10° SE
Intercosmos 24 3.7 14:08:42 10° N 14:12:59 80° ENE 14:16:33 10° SSE
Thor Agena Rocket 3.5 14:09:37 10° SSE 14:14:49 78° ENE 14:20:00 10° NNW
Cosmos 2084 Rocket 3.4 14:11:54 10° NW 14:16:09 87° SW 14:20:22 10° SE
NOSS 2-2 (E) 4.3 14:17:58 10° S 14:20:28 21° SE 14:21:46 16° E
Cosmos 2278 Rocket 3.9 14:16:51 10° WNW 14:21:07 21° NNW 14:25:24 10° NNE
SJ-12 3.9 14:18:17 10° SE 14:21:54 46° ENE 14:25:34 10° N
Meteor 1-28 Rocket 3.0 14:21:22 10° NNE 14:24:37 54° ESE 14:27:53 10° S
Cosmos 1356 Rocket 3.3 14:20:50 10° SSW 14:24:55 88° WNW 14:29:02 10° NNE
Cosmos 1697 Rocket 4.0 14:21:13 10° SE 14:25:10 20° E 14:27:16 16° ENE
IRS-1C 4.1 14:19:59 10° SSE 14:25:15 65° ENE 14:30:32 10° NNW
Cosmos 1634 Rocket 4.0 14:20:38 10° S 14:26:49 85° E 14:33:01 10° NNE
IRIDIUM 104 4.4 14:22:40 10° N 14:27:48 53° E 14:32:55 10° SSE
Cosmos 1655 Rocket 4.4 14:22:03 10° N 14:27:53 38° ENE 14:33:39 10° SE
CZ-2D R/B 4.3 14:24:29 10° ESE 14:28:04 28° ENE 14:31:35 10° N
Cosmos 1544 Rocket 3.7 14:24:00 10° S 14:28:17 55° E 14:32:38 10° NNE
Cosmos 1484 Rocket 3.6 14:28:26 10° S 14:31:51 47° W 14:35:16 10° NNW
CENTAUR R/B 2.7 14:26:05 10° SW 14:32:04 89° SSE 14:38:16 16° NE
Okean 1-7 Rocket 3.7 14:28:13 10° N 14:32:33 51° ENE 14:36:49 10° SSE
Cosmos 405 Rocket 3.5 14:31:47 10° NNW 14:34:56 45° W 14:38:02 10° S
Meteor 1-20 Rocket 4.1 14:31:15 10° NNW 14:36:45 72° ENE 14:42:12 10° SSE
IRIDIUM 114 4.3 14:31:46 10° N 14:36:59 62° E 14:42:09 10° SSE
Lacrosse 5 rocket 1.1 14:37:09 10° WSW 14:40:52 67° SSE 14:42:46 26° E
Cosmos 2279 Rocket 3.9 14:35:19 10° S 14:41:31 78° E 14:47:47 10° NNE
SJ-6F 4.3 14:40:40 10° SSE 14:44:35 59° ENE 14:48:34 10° N
Cosmos 1602 Rocket 3.5 14:40:09 10° NNW 14:44:36 86° ENE 14:48:58 10° SSE
Cosmos 1461 4.1 14:42:21 10° S 14:45:22 21° ESE 14:46:00 21° ESE
SJ 16-02 3.8 14:44:10 10° NW 14:45:42 12° NNW 14:47:15 10° N
IRIDIUM 103 4.2 14:40:56 10° N 14:46:11 72° E 14:51:24 10° SSE
USA 281 4.4 14:43:31 18° ENE 14:46:12 24° NNE 14:51:12 10° NNW
Cosmos 1455 Rocket 4.3 14:42:45 10° SW 14:46:50 40° WNW 14:51:00 10° N
SAR-Lupe-5 4.5 14:47:30 24° NNE 14:49:09 73° ESE 14:52:15 10° S
Cosmos 2082 4.2 14:44:26 10° NNW 14:49:48 39° NE 14:53:17 20° E
NOSS 2-2 (C) 2.5 14:48:02 10° SW 14:51:06 81° SE 14:52:06 38° ENE
Cosmos 1656 3.7 14:46:53 10° SSW 14:52:27 66° ESE 14:56:31 19° NE
ERS-1 4.4 14:47:27 10° SSE 14:52:28 85° ENE 14:57:28 10° NNW
UNK 3.6 14:48:12 10° NNE 14:52:47 68° ESE 14:57:20 10° S
USA 215 3.2 14:48:08 19° E 14:53:08 84° N 14:59:44 10° W
SMAP 3.5 14:48:52 10° S 14:53:31 67° WSW 14:58:11 10° NNW
Cosmos 1867 3.8 14:49:14 10° NW 14:54:41 71° SW 15:00:06 10° SE
Cosmos 2297 Rocket 3.0 14:51:29 10° NW 14:57:00 53° WSW 15:02:29 10° S
Cosmos 1486 Rocket 4.0 14:53:31 10° SSW 14:58:39 63° ESE 15:02:09 21° NE
YAOGAN 1 2.9 14:54:49 10° SE 14:58:49 41° ENE 15:02:51 10° N
Cosmos 2180 Rocket 4.4 14:52:45 10° S 14:58:52 76° E 15:05:03 10° NNE
Landsat 7 3.9 14:54:21 10° S 14:59:00 75° WSW 15:03:41 10° NNW
Cosmos 2228 3.8 14:56:57 10° SSW 15:01:05 49° WNW 15:05:15 10° N
CZ-4C R/B 3.3 14:55:36 10° NW 15:02:07 64° SW 15:10:22 10° SSE
SAR-Lupe-4 4.0 14:59:51 10° S 15:03:23 63° WSW 15:06:56 10° NNW
IRIDIUM 106 4.3 14:59:16 10° N 15:04:31 86° W 15:09:45 10° S
USA 290 4.2 15:03:21 10° NW 15:06:19 32° WSW 15:09:15 10° S
Cosmos 1953 Rocket 3.7 15:03:07 10° N 15:07:27 51° ENE 15:11:47 10° SSE
Resurs 01 Rocket 3.1 15:10:12 21° NNE 15:10:12 21° NNE 15:12:13 10° N
SJ-7 4.3 15:10:03 33° ESE 15:11:17 47° ENE 15:14:55 10° N
Meteor 1-25 Rocket 4.3 15:05:59 10° NNW 15:11:51 84° WSW 15:17:39 10° S
Cosmos 2266 Rocket 4.1 15:06:47 10° NNW 15:12:59 76° W 15:19:03 10° S
BREEZE-M DEB (TANK) 4.0 15:10:28 10° WSW 15:13:30 37° S 15:19:46 14° ESE
Cosmos 1782 3.1 15:10:02 10° SSW 15:13:35 56° WNW 15:16:25 15° N
USA 81 4.2 15:08:45 10° N 15:13:52 47° ENE 15:18:57 10° SSE
ATLAS CENTAUR R/B 4.0 15:12:08 10° W 15:13:57 14° WSW 15:15:44 10° SSW
Cosmos 2219 3.3 15:08:17 10° NNW 15:13:58 57° NE 15:17:39 22° ESE
IRS-P3 4.2 15:09:46 10° SSE 15:15:05 78° WSW 15:20:27 10° NNW
ARIANE 5 R/B 3.2 15:12:52 10° S 15:17:50 56° WSW 15:22:55 10° NNW
Cosmos 1825 Rocket 3.5 15:14:00 10° NNW 15:18:23 86° W 15:22:44 10° S
Cosmos 990 Rocket 4.4 15:14:09 10° S 15:18:55 41° ESE 15:19:48 37° E
Meteor 1-5 Rocket 4.0 15:14:21 10° NNW 15:19:41 80° ENE 15:25:06 10° SSE
CZ-2D R/B 4.1 15:17:29 10° S 15:20:29 40° W 15:23:29 10° NNW
Lacrosse 4 Rocket 2.6 15:18:16 10° W 15:21:59 34° NW 15:23:35 24° N
NOAA 6 4.1 15:17:24 10° SE 15:22:21 53° ENE 15:27:19 10° N
Cosmos 1680 Rocket 4.1 15:19:03 10° NNW 15:23:51 35° NE 15:23:59 35° NE
Cosmos 2151 4.3 15:22:52 10° NNW 15:26:47 41° W 15:30:41 10° SSW
Cosmos 2098 Rocket 3.7 15:23:00 10° SSW 15:27:12 58° WNW 15:32:09 10° N
Cosmos 1980 Rocket 3.3 15:22:47 10° SSE 15:26:13 25° SE 15:26:13 25° SE
SPOT 1/Viking Rocket 3.5 15:22:14 10° SSE 15:27:28 87° WSW 15:32:42 10° NNW
SL-16 R/B 3.3 15:22:22 10° NNE 15:28:24 52° WNW 15:34:23 10° SW
Cosmos 1844 Rocket 3.3 15:23:41 10° NNW 15:28:51 35° NE 15:29:20 34° NE
NOSS 3-2 (C) 3.3 15:28:47 10° SSW 15:33:53 58° SE 15:35:37 42° ENE
NOSS 3-2 (A) 3.3 15:28:39 10° SW 15:33:59 84° NW 15:36:44 36° NE
Cosmos 44 Rocket 3.8 15:30:11 10° NW 15:35:02 43° NNE 15:35:34 41° NE
Cosmos 2263 Rocket 2.2 15:30:00 10° NW 15:35:41 87° WSW 15:41:20 10° SSE
GEOS 3 Rocket 3.6 15:38:33 40° NE 15:40:36 88° NW 15:46:00 10° SW
Cosmos 1076 Rocket 3.7 15:43:49 10° NNW 15:48:07 69° W 15:52:24 10° S
Cosmos 2227 Rocket 3.1 15:42:42 10° NW 15:48:09 49° WSW 15:53:33 10° S
Cosmos 2084 4.2 15:45:30 10° W 15:49:27 40° NNW 15:49:40 39° N
Cosmos 1745 Rocket 4.4 15:43:46 10° N 15:48:46 40° NE 15:48:46 40° NE
Cosmos 1538 Rocket 4.1 15:45:26 10° NNW 15:50:42 76° WSW 15:55:59 10° SSE
Cosmos 2360 4.3 15:47:17 10° SW 15:53:00 73° NW 15:55:24 36° NNE
NOSS 2-2 (D) 4.2 15:51:51 10° WSW 15:53:56 36° W 15:53:56 36° W
Cosmos 1244 Rocket 4.4 15:48:50 10° N 15:55:11 78° ENE 16:01:25 10° SSE
Cosmos 1933 3.7 15:51:29 10° SSW 15:55:16 59° WNW 15:55:44 54° NW
Cosmos 2369 Rocket 3.9 15:51:58 10° WNW 15:56:24 23° NNW 15:58:46 18° NNE
Cosmos 1606 Rocket 3.8 15:52:23 10° SSW 15:56:47 68° WNW 15:58:23 38° N
Cosmos 1943 Rocket 3.9 15:53:55 10° NW 15:57:39 18° N 15:57:50 18° N
SL-19 R/B 4.4 15:53:59 10° SSE 15:59:23 75° WSW 16:05:08 10° NNW
COSMO-SKYMED 1 4.2 16:02:54 23° S 16:02:54 23° S 16:04:29 10° S
PSLV R/B 3.7 15:59:49 30° S 16:01:40 65° WSW 16:05:43 10° NNW
CZ-2D R/B 4.4 15:58:44 10° S 16:02:48 48° W 16:06:51 10° NNW
Cosmos 1503 Rocket 4.2 15:59:07 10° SW 16:04:20 69° WNW 16:05:55 44° N
Meteor 2-20 4.3 15:59:12 10° S 16:05:22 84° E 16:10:01 19° NNE
Resurs 1-3 4.1 16:01:29 10° S 16:05:43 57° W 16:10:00 10° NNW
Cosmos 2278 Rocket 3.9 16:03:19 10° NW 16:07:17 19° N 16:07:17 19° N
Cosmos 1697 Rocket 2.5 16:02:43 10° SSW 16:08:20 84° ESE 16:09:00 70° NE
Cosmos 1354 Rocket 4.0 16:07:14 10° SSW 16:12:31 79° WNW 16:13:14 65° N
SL-08 R/B 4.4 16:07:14 10° N 16:13:36 86° E 16:19:57 10° SSE
Lacrosse 5 rocket 2.7 16:14:12 10° W 16:16:22 33° W 16:16:22 33° W
Cosmos 1386 Rocket 4.2 16:14:12 10° N 16:20:16 75° ENE 16:20:16 75° ENE
Cosmos 1461 4.2 16:17:48 10° SW 16:20:09 35° WSW 16:20:09 35° WSW
SKYMED 2 4.1 16:22:23 56° W 16:22:23 56° W 16:26:14 10° SSW
Cosmos 1726 Rocket 4.3 16:17:37 10° SSW 16:22:11 54° WNW 16:22:51 49° NW
CENTAUR R/B 3.3 16:16:59 10° W 16:23:24 53° N 16:25:22 43° NNE
Cosmos 1844 4.2 16:21:16 10° NNW 16:25:30 46° N 16:25:30 46° N
Meteor 2-20 Rocket 4.3 16:21:17 10° S 16:27:32 87° E 16:28:21 69° NNE
USA 281 3.5 16:30:23 50° NNE 16:30:23 50° NNE 16:35:57 10° NNW
Cosmos 923 Rocket 4.2 16:27:45 10° NNW 16:32:21 65° WNW 16:32:21 65° WNW
USA 238 DEB 4.1 16:28:05 10° SSW 16:32:29 43° S 16:32:29 43° S
USA 238 4.1 16:28:12 10° SSW 16:32:34 43° S 16:32:34 43° S
Cosmos 2082 4.0 16:28:35 10° NW 16:34:14 63° WSW 16:35:10 55° SSW
YAOGAN 1 4.3 16:30:58 10° SSW 16:34:48 31° W 16:38:37 10° NNW
USA 215 3.2 16:35:28 66° SSE 16:36:18 75° SSW 16:42:54 10° WNW
Resurs 01 Rocket 3.8 16:47:36 19° NNW 16:47:36 19° NNW 16:48:59 10° NNW
Cosmos 2219 4.4 16:52:41 10° NW 16:57:58 39° WSW 16:59:37 32° SW
Lacrosse 4 Rocket 4.2 16:58:16 10° NW 16:59:05 13° NW 16:59:05 13° NW
Cosmos 1980 Rocket 3.6 17:05:13 10° SW 17:08:01 30° SW 17:08:01 30° SW
Cosmos 1844 Rocket 3.9 17:07:34 10° NW 17:10:58 38° NW 17:10:58 38° NW
Cosmos 2263 Rocket 4.4 17:14:45 10° NW 17:18:53 21° WSW 17:23:00 10° SSW
NOSS 3-2 (C) 4.4 17:19:19 10° WSW 17:23:01 42° WNW 17:23:01 42° WNW
NOSS 3-2 (A) 4.4 17:19:52 10° W 17:24:05 41° NW 17:24:05 41° NW
CENTAUR R/B 4.0 18:08:14 10° WNW 18:12:27 37° NW 18:12:27 37° NW
